Date String (YYYY-MM-DD hh:mm:ss) UTC,Instrument flags,Ambient pressure (hPa),Sample flow (lpm),Bypass flow (lpm),Sample temperature (°C),Ambient temperature (°C),ASC tube jacket temperature (°C),LED temperature (°C),Box temperature (°C),Sample RH (%),Span deviation,Mass concentration (μg/m³),Mass concentration (μg/m³),Mass concentration (μg/m³)
DateTimeUTC,F1_M11,P_M11,Q1_M11,Q2_M11,T1_M11,T2_M11,T3_M11,T4_M11,T5_M11,U1_M11,ZSPAN_M11,X0_M11,X2_M11,X1_M11
2022-03-31 05:00:00,,0819.5,4.99,0.00,21.4,20.7,00.0,30.5,23.1,13.9,0000.0,0010.62,0004.19,0003.21
2022-03-31 05:01:00,,0819.5,4.99,0.00,21.4,20.7,00.0,30.5,23.1,13.9,0000.0,0010.94,0004.18,0003.21
2022-03-31 05:02:00,,0819.5,5.00,0.00,21.4,20.7,00.0,30.5,23.1,13.8,0000.0,0010.89,0004.17,0003.21
2022-03-31 05:03:00,,0819.6,5.00,0.00,21.4,20.7,00.0,30.4,23.2,13.8,0000.0,0010.87,0004.17,0003.21
2022-03-31 05:04:00,,0819.6,5.01,0.00,21.4,20.8,00.0,30.4,23.2,13.8,0000.0,0010.74,0004.14,0003.21
2022-03-31 05:05:00,,0819.6,5.00,0.00,21.4,20.8,00.0,30.4,23.2,13.7,0000.0,0010.63,0004.12,0003.21
2022-03-31 05:06:00,,0819.6,5.00,0.00,21.5,20.8,00.0,30.4,23.3,13.7,0000.0,0010.87,0004.15,0003.22
2022-03-31 05:07:00,,0819.6,5.00,0.00,21.5,20.9,00.0,30.5,23.3,13.7,0000.0,0010.51,0004.21,0003.22
2022-03-31 05:08:00,,0819.6,5.00,0.00,21.5,20.9,00.0,30.5,23.4,13.5,0000.0,0010.01,0004.21,0003.22
2022-03-31 05:09:00,,0819.5,5.00,0.00,21.5,20.9,00.0,30.5,23.3,13.5,0000.0,0010.25,0004.26,0003.23
2022-03-31 05:10:00,,0819.6,5.00,0.00,21.5,20.9,00.0,30.5,23.3,13.5,0000.0,0010.24,0004.31,0003.24
2022-03-31 05:11:00,,0819.5,5.00,0.00,21.5,20.8,00.0,30.5,23.2,13.5,0000.0,0009.57,0004.30,0003.24
2022-03-31 05:12:00,,0819.5,5.00,0.00,21.5,20.8,00.0,30.5,23.2,13.6,0000.0,0009.87,0004.30,0003.24
2022-03-31 05:13:00,,0819.6,4.99,0.00,21.5,20.8,00.0,30.5,23.2,13.5,0000.0,0010.87,0004.36,0003.26
2022-03-31 05:14:00,,0819.5,5.00,0.00,21.4,20.8,00.0,30.5,23.2,13.5,0000.0,0011.43,0004.39,0003.28
2022-03-31 05:15:00,,0819.5,5.00,0.00,21.4,20.8,00.0,30.5,23.2,13.5,0000.0,0011.67,0004.42,0003.29
2022-03-31 05:16:00,,0819.6,5.00,0.00,21.5,20.8,00.0,30.5,23.3,13.5,0000.0,0011.93,0004.46,0003.29
2022-03-31 05:17:00,,0819.5,4.99,0.00,21.5,20.8,00.0,30.5,23.3,13.4,0000.0,0011.90,0004.46,0003.29
2022-03-31 05:18:00,,0819.5,5.00,0.00,21.5,20.9,00.0,30.5,23.3,13.4,0000.0,0011.66,0004.44,0003.28
2022-03-31 05:19:00,,0819.5,5.01,0.00,21.5,20.9,00.0,30.5,23.3,13.3,0000.0,0011.60,0004.44,0003.28
2022-03-31 05:20:00,,0819.5,5.01,0.00,21.6,21.4,00.0,30.5,23.5,13.2,0000.0,0011.71,0004.44,0003.28
2022-03-31 05:21:00,,0819.5,4.99,0.00,21.8,22.1,00.0,30.6,23.8,13.1,0000.0,0011.78,0004.34,0003.24
2022-03-31 05:22:00,,0819.5,5.01,0.00,21.9,22.7,00.0,30.7,24.0,12.9,0000.0,0011.99,0004.32,0003.22
2022-03-31 05:23:00,,0819.6,5.00,0.00,21.9,22.6,00.0,30.7,24.0,12.9,0000.0,0011.23,0004.32,0003.21
2022-03-31 05:24:00,,0819.6,5.00,0.00,21.9,22.2,00.0,30.7,23.8,12.9,0000.0,0010.71,0004.30,0003.20
2022-03-31 05:25:00,,0819.5,4.99,0.00,21.9,21.9,00.0,30.7,23.7,12.8,0000.0,0010.08,0004.33,0003.17
2022-03-31 05:26:00,,0819.5,5.01,0.00,21.8,21.7,00.0,30.7,23.5,12.8,0000.0,0009.96,0004.29,0003.14
2022-03-31 05:27:00,,0819.5,5.00,0.00,21.8,21.5,00.0,30.7,23.5,12.9,0000.0,0010.11,0004.25,0003.12
2022-03-31 05:28:00,,0819.6,4.99,0.00,21.7,21.3,00.0,30.7,23.4,12.9,0000.0,0010.18,0004.23,0003.11
2022-03-31 05:29:00,,0819.6,5.00,0.00,21.7,21.2,00.0,30.7,23.5,12.9,0000.0,0010.86,0004.21,0003.08
2022-03-31 05:30:00,,0819.6,5.01,0.00,21.7,21.2,00.0,30.7,23.5,12.9,0000.0,0011.46,0004.19,0003.02
2022-03-31 05:31:00,,0819.5,5.01,0.00,21.7,21.2,00.0,30.7,23.5,12.9,0000.0,0011.91,0004.15,0002.94
2022-03-31 05:32:00,,0819.6,5.01,0.00,21.8,21.2,00.0,30.7,23.6,12.9,0000.0,0011.60,0004.12,0002.89
2022-03-31 05:33:00,,0819.5,5.01,0.00,21.8,21.2,00.0,30.8,23.6,12.8,0000.0,0011.22,0004.06,0002.86
2022-03-31 05:34:00,,0819.5,5.00,0.00,21.8,21.2,00.0,30.8,23.5,12.8,0000.0,0011.03,0003.99,0002.82
2022-03-31 05:35:00,,0819.5,4.99,0.00,21.8,21.2,00.0,30.8,23.6,12.7,0000.0,0011.01,0003.97,0002.79
2022-03-31 05:36:00,,0819.5,5.00,0.00,21.8,21.2,00.0,30.8,23.6,12.7,0000.0,0010.59,0003.86,0002.74
2022-03-31 05:37:00,,0819.5,5.00,0.00,21.8,21.2,00.0,30.8,23.6,12.7,0000.0,0010.31,0003.80,0002.71
2022-03-31 05:38:00,,0819.5,5.00,0.00,21.8,21.1,00.0,30.8,23.6,12.6,0000.0,0010.16,0003.82,0002.69
2022-03-31 05:39:00,,0819.5,5.01,0.00,21.8,21.1,00.0,30.8,23.5,12.6,0000.0,0010.12,0003.78,0002.67
2022-03-31 05:40:00,,0819.7,5.00,0.00,21.8,21.1,00.0,30.8,23.6,12.6,0000.0,0009.86,0003.70,0002.62
2022-03-31 05:41:00,,0819.7,4.99,0.00,21.8,21.1,00.0,30.8,23.6,12.5,0000.0,0009.27,0003.64,0002.61
2022-03-31 05:42:00,,0819.7,5.00,0.00,21.8,21.1,00.0,30.8,23.6,12.6,0000.0,0008.36,0003.57,0002.62
2022-03-31 05:43:00,,0819.7,4.99,0.00,21.8,21.1,00.0,30.8,23.6,12.5,0000.0,0008.24,0003.58,0002.61
2022-03-31 05:44:00,,0819.7,5.00,0.00,21.8,21.2,00.0,30.8,23.6,12.5,0000.0,0008.22,0003.59,0002.60
2022-03-31 05:45:00,,0819.7,5.00,0.00,21.8,21.2,00.0,30.8,23.6,12.4,0000.0,0008.20,0003.57,0002.59
2022-03-31 05:46:00,,0819.7,5.00,0.00,21.9,21.2,00.0,30.8,23.7,12.4,0000.0,0008.15,0003.54,0002.55
2022-03-31 05:47:00,,0819.7,5.00,0.00,21.9,21.2,00.0,30.8,23.7,12.4,0000.0,0008.37,0003.53,0002.53
2022-03-31 05:48:00,,0819.7,5.00,0.00,21.9,21.2,00.0,30.8,23.7,12.4,0000.0,0008.51,0003.54,0002.52
2022-03-31 05:49:00,,0819.7,5.00,0.00,21.9,21.2,00.0,30.8,23.7,12.3,0000.0,0008.28,0003.49,0002.50
2022-03-31 05:50:00,,0819.7,5.00,0.00,21.9,21.1,00.0,30.8,23.7,12.3,0000.0,0008.61,0003.46,0002.49
2022-03-31 05:51:00,,0819.7,4.99,0.00,21.8,21.1,00.0,30.8,23.6,12.3,0000.0,0008.34,0003.46,0002.48
2022-03-31 05:52:00,,0819.7,4.99,0.00,21.8,21.0,00.0,30.8,23.5,12.4,0000.0,0008.37,0003.48,0002.47
2022-03-31 05:53:00,,0819.7,5.01,0.00,21.8,21.0,00.0,30.8,23.5,12.4,0000.0,0008.55,0003.52,0002.48
2022-03-31 05:54:00,,0819.7,5.00,0.00,21.7,20.9,00.0,30.8,23.4,12.4,0000.0,0008.57,0003.50,0002.47
2022-03-31 05:55:00,,0819.7,5.00,0.00,21.7,20.9,00.0,30.8,23.3,12.5,0000.0,0008.69,0003.53,0002.48
2022-03-31 05:56:00,,0819.7,5.01,0.00,21.6,20.8,00.0,30.8,23.3,12.5,0000.0,0008.79,0003.55,0002.47
2022-03-31 05:57:00,,0819.8,5.00,0.00,21.6,20.8,00.0,30.7,23.3,12.5,0000.0,0008.75,0003.54,0002.46
2022-03-31 05:58:00,,0819.8,4.99,0.00,21.7,21.3,00.0,30.8,23.4,12.4,0000.0,0008.62,0003.55,0002.47
2022-03-31 05:59:00,,0819.9,5.02,0.00,21.8,22.2,00.0,30.8,23.7,12.3,0000.0,0008.56,0003.56,0002.47
